Location: Newark
(33.1119°N, 7.4058°W)
Time: 11:43:14
(UTC+00:00)

ISS - Visible Passes

Search period start: 13 November 2019 00:00
Search period end: 23 November 2019 00:00
Orbit: 412 x 421 km, 51.6° (Epoch: 13 November)

Date Brightness Start Highest point End Pass type
(mag) Time Alt. Az. Time Alt. Az. Time Alt. Az.
13 Nov -1.2 04:48:32 19° ENE 04:48:32 19° ENE 04:50:16 10° E visible
13 Nov -2.7 06:21:28 11° WNW 06:24:20 30° SW 06:27:20 10° SSE visible
14 Nov -3.8 05:35:33 54° W 05:36:02 63° SW 05:39:21 10° SE visible
15 Nov -1.3 04:49:42 21° ESE 04:49:42 21° ESE 04:51:00 10° SE visible
16 Nov -1.6 05:36:52 15° SSW 05:36:52 15° SSW 05:38:03 10° S visible
18 Nov -2.1 18:58:59 10° SSW 19:00:48 23° SSE 19:00:48 23° SSE visible
19 Nov -1.8 18:11:36 10° SSE 18:13:37 15° SE 18:14:52 13° ESE visible
19 Nov -0.7 19:46:56 10° WSW 19:47:48 16° WSW 19:47:48 16° WSW visible
20 Nov -3.8 18:58:16 10° SW 19:01:36 74° NW 19:01:46 71° N visible
21 Nov -3.5 18:09:55 10° SSW 18:13:10 53° SE 18:15:39 16° ENE visible
21 Nov -0.5 19:48:04 10° WNW 19:48:34 12° WNW 19:48:34 12° WNW visible
22 Nov -1.9 18:58:42 10° W 19:01:28 24° NW 19:02:20 21° NNW visible
